Location: Bukovany
(49.8234°N, 14.6297°E)
Time: 16:14:02
(UTC+00:00)

Cosmos 44 Rocket - Pass Details

Date: 17 November 2025
Orbit: 637 x 741 km, 65.1° (Epoch: 09 December)

Event Time Altitude Azimuth Distance (km) Brightness Sun altitude
Rises 17:38:48 0° 227° (SW) 2,996 7.3 -22.9°
Reaches altitude 10° 17:41:05 10° 231° (SW) 2,102 6.5 -23.2°
Maximum altitude 17:45:51 65° 313° (NW) 761 3.5 -24.0°
Enters shadow 17:47:08 46° 13° (NNE) 935 3.8 -24.2°
